TimePDT,TemperatureF,Dew PointF,Humidity,Sea Level PressureIn,VisibilityMPH,Wind Direction,Wind SpeedMPH,Gust SpeedMPH,PrecipitationIn,Events,Conditions,WindDirDegrees,DateUTC
12:54 AM,60.1,55.0,83,30.03,10.0,Calm,Calm,-,N/A,,Clear,0,2013-10-01 07:54:00
1:54 AM,59.0,55.9,90,30.04,10.0,Calm,Calm,-,N/A,,Clear,0,2013-10-01 08:54:00
2:54 AM,59.0,50.0,72,30.04,10.0,SW,4.6,-,N/A,,Clear,230,2013-10-01 09:54:00
3:54 AM,59.0,44.1,58,30.05,10.0,SSW,5.8,-,N/A,,Clear,210,2013-10-01 10:54:00
4:54 AM,57.0,46.9,69,30.05,10.0,SSW,5.8,-,N/A,,Clear,210,2013-10-01 11:54:00
5:54 AM,55.9,48.0,75,30.06,10.0,SSW,4.6,-,N/A,,Clear,210,2013-10-01 12:54:00
6:54 AM,55.9,50.0,80,30.07,10.0,SSW,5.8,-,N/A,,Partly Cloudy,200,2013-10-01 13:54:00
7:54 AM,57.0,50.0,77,30.08,10.0,SW,4.6,-,N/A,,Clear,220,2013-10-01 14:54:00
8:18 AM,57.2,51.8,82,30.05,9.0,SW,4.6,-,N/A,,Mostly Cloudy,220,2013-10-01 15:18:00
8:25 AM,57.2,51.8,82,30.05,9.0,SW,4.6,-,N/A,,Partly Cloudy,230,2013-10-01 15:25:00
8:54 AM,59.0,52.0,78,30.09,9.0,WSW,6.9,-,N/A,,Partly Cloudy,250,2013-10-01 15:54:00
9:24 AM,59.0,51.8,77,30.06,10.0,West,5.8,-,N/A,,Mostly Cloudy,270,2013-10-01 16:24:00
9:54 AM,60.1,52.0,75,30.09,10.0,Calm,Calm,-,N/A,,Scattered Clouds,0,2013-10-01 16:54:00
10:54 AM,61.0,51.1,70,30.09,10.0,West,11.5,-,N/A,,Clear,280,2013-10-01 17:54:00
11:54 AM,63.0,51.1,65,30.08,10.0,WNW,8.1,-,N/A,,Clear,300,2013-10-01 18:54:00
12:54 PM,63.0,51.1,65,30.06,10.0,West,10.4,-,N/A,,Clear,280,2013-10-01 19:54:00
1:54 PM,63.0,51.1,65,30.05,10.0,West,12.7,-,N/A,,Clear,270,2013-10-01 20:54:00
2:54 PM,64.0,51.1,63,30.04,10.0,West,10.4,-,N/A,,Scattered Clouds,270,2013-10-01 21:54:00
3:54 PM,63.0,50.0,63,30.03,10.0,West,9.2,-,N/A,,Clear,260,2013-10-01 22:54:00
4:54 PM,63.0,50.0,63,30.02,10.0,West,9.2,-,N/A,,Clear,280,2013-10-01 23:54:00
5:54 PM,61.0,50.0,67,30.01,10.0,West,6.9,-,N/A,,Clear,260,2013-10-02 00:54:00
6:54 PM,59.0,50.0,72,30.00,10.0,SW,6.9,-,N/A,,Clear,230,2013-10-02 01:54:00
7:54 PM,57.0,50.0,77,30.00,10.0,SSW,6.9,-,N/A,,Partly Cloudy,210,2013-10-02 02:54:00
8:18 PM,57.2,50.0,77,29.97,10.0,SSW,5.8,-,N/A,,Mostly Cloudy,200,2013-10-02 03:18:00
8:54 PM,57.0,51.1,81,30.01,10.0,South,6.9,-,N/A,,Overcast,190,2013-10-02 03:54:00
9:39 PM,55.4,50.0,82,29.97,10.0,South,5.8,-,N/A,,Scattered Clouds,190,2013-10-02 04:39:00
9:54 PM,55.9,50.0,80,30.01,10.0,SSE,4.6,-,N/A,,Clear,160,2013-10-02 04:54:00
10:54 PM,55.0,50.0,83,30.01,10.0,South,4.6,-,N/A,,Clear,180,2013-10-02 05:54:00
11:18 PM,55.4,50.0,82,29.97,10.0,South,4.6,-,N/A,,Mostly Cloudy,180,2013-10-02 06:18:00
11:54 PM,55.0,51.1,86,30.01,9.0,SSW,4.6,-,N/A,,Overcast,200,2013-10-02 06:54:00